GFSGBSN_prec_snow_315.txt.gz
Snowfall_Accumulation
0.0 0.0 0.0 0.0 0.0 0.0 0.0 0.0 0.0 0.0 0.0 0.0 0.0 0.0 0.0 0.0 0.0 0.0 0.0 0.0 0.0 0.0 0.0 0.0 0.0 0.0 0.0 0.0 0.0 0.0 0.0 0.0 0.0 0.0 0.0 0.0 0.0 0.0 0.0 0.0 0.0 0.0 0.0 0.0 0.0 0.0 0.0
0.0 0.0 0.0 0.0 0.0 0.0 0.0 0.0 0.0 0.0 0.0 0.0 0.0 0.0 0.0 0.0 0.0 0.0 0.0 0.0 0.0 0.0 0.0 0.0 0.0 0.0 0.0 0.0 0.0 0.0 0.0 0.0 0.0 0.0 0.0 0.0 0.0 0.0 0.0 0.0 0.0 0.0 0.0 0.0 0.0 0.0 0.0
0.0 0.0 0.0 0.0 0.0 0.0 0.0 0.0 0.0 0.0 0.0 0.0 0.0 0.0 0.0 0.0 0.0 0.0 0.0 0.0 0.0 0.0 0.0 0.0 0.0 0.0 0.0 0.0 0.0 0.0 0.0 0.0 0.0 0.0 0.0 0.0 0.0 0.0 0.0 0.0 0.0 0.0 0.0 0.0 0.0 0.0 0.0
0.0 0.0 0.0 0.0 0.0 0.0 0.0 0.0 0.0 0.0 0.0 0.0 0.0 0.0 0.0 0.0 0.0 0.0 0.0 0.0 0.0 0.0 0.0 0.0 0.0 0.0 0.0 0.0 0.0 0.0 0.0 0.0 0.0 0.0 0.0 0.0 0.0 0.0 0.0 0.0 0.0 0.0 0.0 0.0 0.0 0.0 0.0
0.0 0.0 0.0 0.0 0.0 0.0 0.0 0.0 0.0 0.0 0.0 0.0 0.0 0.0 0.0 0.0 0.0 0.0 0.0 0.0 0.0 0.0 0.0 0.0 0.0 0.0 0.0 0.0 0.0 0.0 0.0 0.0 0.0 0.0 0.0 0.0 0.0 0.0 0.0 0.0 0.0 0.0 0.0 0.0 0.0 0.0 0.0
0.0 0.0 0.0 0.0 0.0 0.0 0.0 0.0 0.0 0.0 0.0 0.0 0.0 0.0 0.0 0.0 0.0 0.0 0.0 0.0 0.0 0.0 0.0 0.0 0.0 0.0 0.0 0.0 0.0 0.0 0.0 0.0 0.0 0.0 0.0 0.0 0.0 0.0 0.0 0.0 0.0 0.0 0.0 0.0 0.0 0.0 0.0
0.0 0.0 0.0 0.0 0.0 0.0 0.0 0.0 0.0 0.0 0.0 0.0 0.0 0.0 0.0 0.0 0.0 0.0 0.0 0.0 0.0 0.0 0.0 0.0 0.0 0.0 0.0 0.0 0.0 0.0 0.0 0.0 0.0 0.0 0.0 0.0 0.0 0.0 0.0 0.0 0.0 0.0 0.0 0.0 0.0 0.0 0.0
0.0 0.0 0.0 0.0 0.0 0.0 0.0 0.0 0.0 0.0 0.0 0.0 0.0 0.0 0.0 0.0 0.0 0.0 0.0 0.0 0.0 0.0 0.6 0.0 0.0 0.0 0.0 0.0 0.0 0.0 0.0 0.0 0.0 0.0 0.0 0.0 0.0 0.0 0.0 0.0 0.0 0.0 0.0 0.0 0.0 0.0 0.0
0.0 0.0 0.0 0.0 0.0 0.0 0.0 0.0 0.0 0.0 0.0 0.0 0.0 0.0 0.0 0.0 0.0 0.0 0.0 0.0 0.0 0.0 2.7 0.0 0.0 0.0 0.0 0.0 0.0 0.0 0.0 0.0 0.0 0.2 0.0 0.0 0.0 0.0 0.0 0.0 0.0 0.0 0.5 0.0 0.2 0.0 0.0
0.0 0.0 0.0 0.0 0.0 0.0 0.0 0.0 0.0 0.0 0.0 0.0 0.0 0.0 0.0 0.0 0.0 0.0 0.0 0.0 0.0 0.0 6.9 0.0 0.2 0.0 0.0 0.0 0.0 0.0 0.0 0.0 0.0 0.0 0.3 0.1 0.0 0.0 0.0 0.0 0.4 0.3 0.0 0.0 0.0 0.2 0.6
0.0 0.0 0.0 0.0 0.0 0.0 0.0 0.0 0.0 0.0 0.0 0.0 0.0 0.0 0.0 0.0 0.0 0.0 0.0 0.0 0.0 0.0 34.8 0.3 0.0 0.0 0.0 0.0 0.0 0.0 0.0 0.0 0.0 0.0 0.4 0.4 0.1 0.2 0.6 0.2 0.5 0.1 0.0 0.0 0.0 0.0 0.6
0.0 0.0 0.0 0.0 0.0 0.0 0.0 0.0 0.0 0.0 0.0 0.0 0.0 0.0 0.0 0.0 0.0 0.0 0.0 0.0 0.0 37.6 45.6 1.3 0.0 0.0 0.0 0.0 0.0 0.0 0.0 0.0 0.0 0.0 0.0 0.0 0.0 0.0 0.5 0.0 0.0 0.0 0.2 0.0 0.1 0.9 3.4
0.0 0.0 0.0 0.0 0.0 0.0 0.0 0.0 0.0 0.0 0.0 0.0 0.0 0.0 0.0 0.0 0.0 0.0 0.0 0.0 59.0 61.7 0.0 2.1 0.0 0.0 0.0 0.0 0.0 0.2 0.9 0.3 0.2 2.3 1.6 0.0 0.4 0.0 0.0 0.4 0.0 0.5 0.6 6.6 5.7 6.1 3.9
0.0 0.0 0.0 0.0 0.0 0.0 0.0 0.0 0.0 0.0 0.0 0.0 0.0 0.0 0.0 0.0 0.0 0.0 0.0 13.4 70.9 12.0 3.6 0.1 0.0 0.0 0.7 0.0 0.0 0.0 0.5 0.8 0.0 0.0 0.6 2.3 2.4 0.7 0.1 2.8 0.4 0.1 0.7 3.4 5.6 2.4 0.5
0.0 0.0 0.0 0.0 0.0 0.0 0.0 0.0 0.0 0.0 0.0 0.0 0.0 0.0 0.0 0.0 0.0 0.0 6.3 86.1 51.8 1.6 0.0 0.0 0.0 1.8 2.3 0.7 0.2 0.0 1.6 2.0 1.5 0.1 4.3 5.3 2.2 0.0 0.5 0.0 0.1 1.2 4.0 0.8 5.6 1.8 4.2
0.0 0.0 0.0 0.0 0.0 0.0 0.0 0.0 0.0 0.0 0.0 0.0 0.0 0.0 0.0 0.0 0.0 0.0 37.2 64.2 23.9 0.0 0.9 0.0 2.3 1.2 2.6 2.3 1.8 2.3 1.6 4.1 2.5 2.4 0.0 3.3 8.5 0.7 0.1 0.0 0.0 1.2 1.1 8.1 12.8 25.8 15.2
0.0 0.0 0.0 0.0 0.0 0.0 0.0 0.0 0.0 0.0 0.0 0.0 0.0 8.8 0.0 0.0 0.0 2.5 63.9 19.3 8.3 0.0 0.0 2.2 2.5 4.3 1.1 2.1 5.1 4.6 5.1 2.7 4.7 1.9 0.6 1.9 8.4 1.6 0.1 2.0 3.1 0.6 3.9 7.3 9.5 15.0 16.8
0.0 0.0 0.0 0.0 0.0 0.0 0.0 0.0 0.0 0.0 0.0 0.0 0.0 41.3 0.0 0.0 33.5 39.9 40.4 15.4 1.8 0.3 0.0 2.7 1.7 1.6 3.6 3.0 3.2 5.3 8.4 6.0 0.9 1.5 3.1 3.5 7.7 10.2 1.2 0.4 0.1 0.5 7.7 11.8 45.7 39.5 28.3
0.0 0.0 0.0 0.0 0.0 0.0 0.0 0.0 0.0 0.0 0.0 0.0 18.8 23.4 0.0 0.0 57.7 40.5 12.5 15.8 5.7 4.2 3.1 5.9 3.6 0.9 1.6 2.2 7.2 4.6 5.7 0.0 2.4 5.6 6.9 7.0 10.9 13.7 6.3 1.6 0.1 6.8 9.6 9.7 14.3 31.1 29.6
0.0 0.0 0.0 0.0 0.0 0.0 0.0 0.0 0.0 0.0 0.0 0.0 23.8 54.8 13.5 0.3 8.5 12.3 14.9 15.5 10.1 0.0 2.9 0.6 7.8 0.2 5.4 7.8 2.8 6.2 4.1 2.8 6.5 5.9 2.4 4.2 7.1 8.7 9.7 6.9 6.5 7.3 3.8 7.1 17.8 28.4 19.1
0.0 0.0 0.0 0.0 0.0 0.0 0.0 0.0 0.0 0.0 0.0 0.0 41.1 44.7 0.6 38.0 23.4 10.8 11.4 10.6 7.9 8.0 4.6 0.5 8.0 3.8 4.7 10.8 7.2 5.4 4.6 6.2 9.1 0.4 3.7 12.7 12.4 5.6 4.7 1.9 1.4 3.1 3.6 2.7 11.2 6.8 12.6
0.0 0.0 0.0 0.0 0.0 0.0 0.0 0.0 0.0 0.0 0.0 3.5 80.3 24.2 5.7 7.2 4.3 14.1 10.1 13.7 6.0 5.5 11.1 7.8 8.1 3.5 2.9 7.7 5.5 8.1 5.8 3.5 9.0 0.3 9.1 11.8 14.6 9.4 12.9 3.4 4.8 7.7 5.0 3.2 5.2 4.6 4.3
0.0 0.0 0.0 0.0 0.0 0.0 0.0 0.0 0.0 0.0 0.0 20.6 7.9 0.0 17.2 6.4 5.1 11.1 13.4 10.9 8.1 10.5 3.3 2.2 4.9 6.8 5.5 4.7 0.9 0.6 0.5 0.2 1.7 6.8 7.4 13.5 19.8 18.9 19.1 4.7 6.8 14.2 6.7 4.3 3.6 1.6 1.5
0.0 0.0 0.0 0.0 0.0 0.0 0.0 0.0 0.0 0.0 0.0 0.0 0.4 3.7 26.0 25.3 10.5 7.4 5.1 2.9 6.5 7.0 15.9 3.7 2.7 6.1 0.1 0.1 0.0 0.0 0.0 2.2 0.0 2.6 2.5 13.7 16.0 23.1 23.7 9.5 22.1 6.0 3.2 1.7 0.7 0.6 0.3
0.0 0.0 0.0 0.0 0.0 0.0 0.0 0.0 0.0 0.0 0.0 0.0 0.0 3.8 21.8 27.3 5.3 6.4 5.2 5.2 3.3 3.8 7.4 8.5 4.4 0.4 0.0 1.1 11.7 20.6 18.8 18.2 13.1 6.9 7.0 5.0 9.9 23.4 22.6 15.9 9.6 1.8 0.3 0.6 6.6 4.5 0.4
0.0 0.0 0.0 0.0 0.0 0.0 0.0 0.0 0.0 0.0 0.0 0.0 0.0 0.0 9.9 35.6 10.4 0.9 5.5 2.2 4.7 9.0 9.1 6.1 2.9 0.0 0.0 8.9 23.0 27.2 17.3 10.9 8.6 6.2 3.6 4.6 7.7 20.1 24.0 19.6 10.9 0.2 0.1 0.0 0.2 12.8 0.5
0.0 0.0 0.0 0.0 0.0 0.0 0.0 0.0 0.0 0.0 0.0 0.0 0.0 0.0 7.3 43.1 2.2 1.1 7.0 9.1 2.1 4.6 11.3 2.9 2.4 5.3 0.4 21.7 33.5 24.9 13.9 4.1 7.3 7.2 10.1 14.9 22.7 29.4 19.7 18.1 3.4 0.6 0.2 0.0 12.4 11.8 4.7
0.0 0.0 0.0 0.0 0.0 0.0 0.0 0.0 0.0 0.0 0.0 0.0 0.0 0.0 7.0 44.0 4.7 0.0 0.5 1.0 3.4 3.4 12.4 6.8 16.3 11.9 19.2 21.5 22.1 18.3 18.5 11.7 8.9 5.8 9.6 9.3 22.3 21.1 19.4 24.5 10.8 0.0 1.0 4.8 3.0 5.5 7.3
0.0 0.0 0.0 0.0 0.0 0.0 0.0 0.0 0.0 0.0 0.0 0.0 9.0 0.0 0.0 20.2 10.1 0.0 0.0 0.0 0.0 0.0 3.6 5.2 10.4 13.2 17.5 22.5 17.8 11.5 12.3 8.4 9.3 14.6 2.1 12.1 10.1 16.1 16.9 14.3 4.2 1.4 3.0 1.8 1.3 4.4 6.7

GFSGBSN_prec_snow_321.txt.gz
Snowfall_Accumulation
0.0 0.0 0.0 0.0 0.0 0.0 0.0 0.0 0.0 0.0 0.0 0.0 0.0 0.0 0.0 0.0 0.0 0.0 0.0 0.0 0.0 0.0 0.0 0.0 0.0 0.0 0.0 0.0 0.0 0.0 0.0 0.0 0.0 0.0 0.0 0.0 0.0 0.0 0.0 0.0 0.0 0.0 0.0 0.0 0.0 0.0 0.0
0.0 0.0 0.0 0.0 0.0 0.0 0.0 0.0 0.0 0.0 0.0 0.0 0.0 0.0 0.0 0.0 0.0 0.0 0.0 0.0 0.0 0.0 0.0 0.0 0.0 0.0 0.0 0.0 0.0 0.0 0.0 0.0 0.0 0.0 0.0 0.0 0.0 0.0 0.0 0.0 0.0 0.0 0.0 0.0 0.0 0.0 0.0
0.0 0.0 0.0 0.0 0.0 0.0 0.0 0.0 0.0 0.0 0.0 0.0 0.0 0.0 0.0 0.0 0.0 0.0 0.0 0.0 0.0 0.0 0.0 0.0 0.0 0.0 0.0 0.0 0.0 0.0 0.0 0.0 0.0 0.0 0.0 0.0 0.0 0.0 0.0 0.0 0.0 0.0 0.0 0.0 0.0 0.0 0.0
0.0 0.0 0.0 0.0 0.0 0.0 0.0 0.0 0.0 0.0 0.0 0.0 0.0 0.0 0.0 0.0 0.0 0.0 0.0 0.0 0.0 0.0 0.0 0.0 0.0 0.0 0.0 0.0 0.0 0.0 0.0 0.0 0.0 0.0 0.0 0.0 0.0 0.0 0.0 0.0 0.0 0.0 0.0 0.0 0.0 0.0 0.0
0.0 0.0 0.0 0.0 0.0 0.0 0.0 0.0 0.0 0.0 0.0 0.0 0.0 0.0 0.0 0.0 0.0 0.0 0.0 0.0 0.0 0.0 0.0 0.0 0.0 0.0 0.0 0.0 0.0 0.0 0.0 0.0 0.0 0.0 0.0 0.0 0.0 0.0 0.0 0.0 0.0 0.0 0.0 0.0 0.0 0.0 0.0
0.0 0.0 0.0 0.0 0.0 0.0 0.0 0.0 0.0 0.0 0.0 0.0 0.0 0.0 0.0 0.0 0.0 0.0 0.0 0.0 0.0 0.0 0.0 0.0 0.0 0.0 0.0 0.0 0.0 0.0 0.0 0.0 0.0 0.0 0.0 0.0 0.0 0.0 0.0 0.0 0.0 0.0 0.0 0.0 0.0 0.0 0.0
0.0 0.0 0.0 0.0 0.0 0.0 0.0 0.0 0.0 0.0 0.0 0.0 0.0 0.0 0.0 0.0 0.0 0.0 0.0 0.0 0.0 0.0 0.0 0.0 0.0 0.0 0.0 0.0 0.0 0.0 0.0 0.0 0.0 0.0 0.0 0.0 0.0 0.0 0.0 0.0 0.0 0.0 0.0 0.0 0.0 0.0 0.0
0.0 0.0 0.0 0.0 0.0 0.0 0.0 0.0 0.0 0.0 0.0 0.0 0.0 0.0 0.0 0.0 0.0 0.0 0.0 0.0 0.0 0.0 0.6 0.0 0.0 0.0 0.0 0.0 0.0 0.0 0.0 0.0 0.0 0.0 0.0 0.0 0.0 0.0 0.0 0.0 0.0 0.0 0.0 0.0 0.0 0.0 0.0
0.0 0.0 0.0 0.0 0.0 0.0 0.0 0.0 0.0 0.0 0.0 0.0 0.0 0.0 0.0 0.0 0.0 0.0 0.0 0.0 0.0 0.0 2.7 0.0 0.0 0.0 0.0 0.0 0.0 0.0 0.0 0.0 0.0 0.2 0.0 0.0 0.0 0.0 0.0 0.0 0.0 0.0 0.5 0.0 0.2 0.0 0.0
0.0 0.0 0.0 0.0 0.0 0.0 0.0 0.0 0.0 0.0 0.0 0.0 0.0 0.0 0.0 0.0 0.0 0.0 0.0 0.0 0.0 0.0 6.9 0.0 0.2 0.0 0.0 0.0 0.0 0.0 0.0 0.0 0.0 0.0 0.3 0.1 0.0 0.0 0.0 0.0 0.4 0.3 0.0 0.0 0.0 0.2 0.6
0.0 0.0 0.0 0.0 0.0 0.0 0.0 0.0 0.0 0.0 0.0 0.0 0.0 0.0 0.0 0.0 0.0 0.0 0.0 0.0 0.0 0.0 34.8 0.3 0.0 0.0 0.0 0.0 0.0 0.0 0.0 0.0 0.0 0.0 0.4 0.4 0.1 0.2 0.6 0.2 0.5 0.1 0.0 0.0 0.0 0.0 0.6
0.0 0.0 0.0 0.0 0.0 0.0 0.0 0.0 0.0 0.0 0.0 0.0 0.0 0.0 0.0 0.0 0.0 0.0 0.0 0.0 0.0 37.6 45.6 1.3 0.0 0.0 0.0 0.0 0.0 0.0 0.0 0.0 0.0 0.0 0.0 0.0 0.0 0.0 0.5 0.0 0.0 0.0 0.2 0.0 0.1 0.9 3.4
0.0 0.0 0.0 0.0 0.0 0.0 0.0 0.0 0.0 0.0 0.0 0.0 0.0 0.0 0.0 0.0 0.0 0.0 0.0 0.0 59.0 61.8 0.0 2.1 0.0 0.0 0.0 0.0 0.0 0.2 0.9 0.3 0.2 2.3 1.6 0.0 0.4 0.0 0.0 0.4 0.0 0.5 0.6 6.6 5.7 6.1 3.9
0.0 0.0 0.0 0.0 0.0 0.0 0.0 0.0 0.0 0.0 0.0 0.0 0.0 0.0 0.0 0.0 0.0 0.0 0.0 13.4 70.9 12.0 3.6 0.1 0.0 0.0 0.7 0.0 0.0 0.0 0.5 0.8 0.0 0.0 0.6 2.3 2.4 0.7 0.1 2.8 0.4 0.1 0.7 3.4 5.6 2.4 0.5
0.0 0.0 0.0 0.0 0.0 0.0 0.0 0.0 0.0 0.0 0.0 0.0 0.0 0.0 0.0 0.0 0.0 0.0 6.3 86.1 52.1 1.6 0.0 0.0 0.0 1.8 2.3 0.7 0.2 0.0 1.6 2.0 1.5 0.1 4.3 5.3 2.2 0.0 0.5 0.0 0.1 1.2 4.0 0.8 5.6 1.8 4.2
0.0 0.0 0.0 0.0 0.0 0.0 0.0 0.0 0.0 0.0 0.0 0.0 0.0 0.0 0.0 0.0 0.0 0.0 37.2 64.2 23.9 0.0 0.9 0.0 2.3 1.3 2.6 2.3 1.8 2.4 2.0 4.3 2.5 2.4 0.0 3.3 8.5 0.7 0.1 0.0 0.0 1.2 1.1 8.1 12.8 25.8 15.2
0.0 0.0 0.0 0.0 0.0 0.0 0.0 0.0 0.0 0.0 0.0 0.0 0.0 8.8 0.0 0.0 0.0 2.5 63.9 19.3 8.3 0.0 0.0 2.2 2.5 4.3 1.1 2.1 5.1 5.3 6.4 3.5 4.7 1.9 0.6 1.9 8.4 1.6 0.1 2.0 3.1 0.6 3.9 7.3 9.5 15.0 16.8
0.0 0.0 0.0 0.0 0.0 0.0 0.0 0.0 0.0 0.0 0.0 0.0 0.0 41.3 0.0 0.0 33.5 39.9 40.4 15.4 1.8 0.3 0.0 2.7 1.7 1.6 3.6 3.0 3.2 7.6 11.0 7.9 0.9 1.5 3.1 3.5 7.7 10.2 1.2 0.4 0.1 0.5 7.7 11.8 45.7 39.5 28.3
0.0 0.0 0.0 0.0 0.0 0.0 0.0 0.0 0.0 0.0 0.0 0.0 18.8 23.4 0.0 0.0 57.7 40.5 12.5 15.8 5.7 4.2 3.1 5.9 3.6 0.9 1.6 2.2 7.2 5.3 5.8 0.1 2.7 5.6 6.9 7.0 10.9 13.7 6.3 1.6 0.1 6.8 9.6 9.7 14.3 31.1 29.6
0.0 0.0 0.0 0.0 0.0 0.0 0.0 0.0 0.0 0.0 0.0 0.0 23.8 54.8 13.5 0.3 8.5 12.3 14.9 15.5 10.1 0.0 2.9 0.6 7.8 0.2 5.4 7.8 2.8 6.4 4.1 2.8 6.5 5.9 2.4 4.2 7.1 8.7 9.7 6.9 6.5 7.3 3.8 7.1 17.8 28.4 19.1
0.0 0.0 0.0 0.0 0.0 0.0 0.0 0.0 0.0 0.0 0.0 0.0 41.1 44.7 0.6 38.0 23.4 10.8 11.4 10.6 7.9 8.0 4.6 0.5 8.0 3.8 4.7 10.9 7.2 5.4 4.6 6.2 9.1 0.4 3.7 12.7 12.4 5.6 4.7 1.9 1.4 3.1 3.6 2.7 11.2 6.8 12.6
0.0 0.0 0.0 0.0 0.0 0.0 0.0 0.0 0.0 0.0 0.0 3.5 80.3 24.2 5.7 7.2 4.3 14.1 10.1 13.7 6.0 5.5 11.2 7.8 8.1 3.5 2.9 7.8 5.5 8.1 5.8 3.5 9.1 0.4 9.1 11.9 14.6 9.4 12.9 3.4 4.8 7.7 5.0 3.2 5.2 4.6 4.3
0.0 0.0 0.0 0.0 0.0 0.0 0.0 0.0 0.0 0.0 0.0 20.6 7.9 0.0 17.2 6.4 5.1 11.1 13.4 10.9 8.1 10.5 3.3 2.2 4.9 6.8 5.5 4.7 0.9 0.6 0.5 0.2 1.7 6.9 7.5 13.5 19.8 18.9 19.1 4.8 6.8 14.2 6.7 4.3 3.6 1.6 1.5
0.0 0.0 0.0 0.0 0.0 0.0 0.0 0.0 0.0 0.0 0.0 0.0 0.4 3.7 26.0 25.3 10.5 7.4 5.1 2.9 6.5 7.0 15.9 3.7 2.7 6.1 0.1 0.1 0.0 0.0 0.0 2.2 0.0 2.6 2.5 13.7 16.0 23.1 23.7 9.5 22.2 6.0 3.2 1.7 0.7 0.6 0.3
0.0 0.0 0.0 0.0 0.0 0.0 0.0 0.0 0.0 0.0 0.0 0.0 0.0 3.8 21.8 27.3 5.3 6.4 5.2 5.2 3.3 3.8 7.4 8.5 4.4 0.4 0.0 1.1 11.7 20.6 18.8 18.2 13.1 6.9 7.0 5.0 9.9 23.5 22.6 15.9 9.7 1.9 0.4 0.6 6.6 4.5 0.4
0.0 0.0 0.0 0.0 0.0 0.0 0.0 0.0 0.0 0.0 0.0 0.0 0.0 0.0 9.9 35.7 10.4 0.9 5.5 2.2 4.7 9.0 9.1 6.1 2.9 0.0 0.0 8.9 23.0 27.2 17.3 10.9 8.7 6.3 3.6 4.6 7.7 20.1 24.2 19.6 11.1 0.9 0.4 0.0 0.2 12.8 0.5
0.0 0.0 0.0 0.0 0.0 0.0 0.0 0.0 0.0 0.0 0.0 0.0 0.0 0.0 7.3 43.2 2.2 1.1 7.0 9.3 2.1 4.6 11.4 2.9 2.4 5.3 0.4 21.7 34.2 25.3 14.3 5.0 9.0 8.3 11.3 15.0 22.7 29.4 19.8 18.4 3.8 0.6 0.3 0.0 12.5 11.8 4.7
0.0 0.0 0.0 0.0 0.0 0.0 0.0 0.0 0.0 0.0 0.0 0.0 0.0 0.0 7.1 44.3 4.7 0.0 0.5 1.0 3.4 3.4 12.9 6.8 16.3 11.9 19.2 21.8 22.8 18.9 19.9 13.5 11.3 7.6 12.5 12.0 23.0 21.6 19.4 24.6 11.0 0.0 1.0 5.0 3.3 5.5 7.3
0.0 0.0 0.0 0.0 0.0 0.0 0.0 0.0 0.0 0.0 0.0 0.0 9.0 0.0 0.0 20.2 10.1 0.0 0.0 0.0 0.0 0.0 3.6 5.2 10.4 13.2 17.5 22.5 18.0 11.9 13.1 9.4 10.4 15.8 2.7 14.5 12.0 17.9 17.8 15.1 4.8 2.0 3.7 2.1 1.3 4.4 6.7

GFSGBSN_prec_snow_324.txt.gz
Snowfall_Accumulation
0.0 0.0 0.0 0.0 0.0 0.0 0.0 0.0 0.0 0.0 0.0 0.0 0.0 0.0 0.0 0.0 0.0 0.0 0.0 0.0 0.0 0.0 0.0 0.0 0.0 0.0 0.0 0.0 0.0 0.0 0.0 0.0 0.0 0.0 0.0 0.0 0.0 0.0 0.0 0.0 0.0 0.0 0.0 0.0 0.0 0.0 0.0
0.0 0.0 0.0 0.0 0.0 0.0 0.0 0.0 0.0 0.0 0.0 0.0 0.0 0.0 0.0 0.0 0.0 0.0 0.0 0.0 0.0 0.0 0.0 0.0 0.0 0.0 0.0 0.0 0.0 0.0 0.0 0.0 0.0 0.0 0.0 0.0 0.0 0.0 0.0 0.0 0.0 0.0 0.0 0.0 0.0 0.0 0.0
0.0 0.0 0.0 0.0 0.0 0.0 0.0 0.0 0.0 0.0 0.0 0.0 0.0 0.0 0.0 0.0 0.0 0.0 0.0 0.0 0.0 0.0 0.0 0.0 0.0 0.0 0.0 0.0 0.0 0.0 0.0 0.0 0.0 0.0 0.0 0.0 0.0 0.0 0.0 0.0 0.0 0.0 0.0 0.0 0.0 0.0 0.0
0.0 0.0 0.0 0.0 0.0 0.0 0.0 0.0 0.0 0.0 0.0 0.0 0.0 0.0 0.0 0.0 0.0 0.0 0.0 0.0 0.0 0.0 0.0 0.0 0.0 0.0 0.0 0.0 0.0 0.0 0.0 0.0 0.0 0.0 0.0 0.0 0.0 0.0 0.0 0.0 0.0 0.0 0.0 0.0 0.0 0.0 0.0
0.0 0.0 0.0 0.0 0.0 0.0 0.0 0.0 0.0 0.0 0.0 0.0 0.0 0.0 0.0 0.0 0.0 0.0 0.0 0.0 0.0 0.0 0.0 0.0 0.0 0.0 0.0 0.0 0.0 0.0 0.0 0.0 0.0 0.0 0.0 0.0 0.0 0.0 0.0 0.0 0.0 0.0 0.0 0.0 0.0 0.0 0.0
0.0 0.0 0.0 0.0 0.0 0.0 0.0 0.0 0.0 0.0 0.0 0.0 0.0 0.0 0.0 0.0 0.0 0.0 0.0 0.0 0.0 0.0 0.0 0.0 0.0 0.0 0.0 0.0 0.0 0.0 0.0 0.0 0.0 0.0 0.0 0.0 0.0 0.0 0.0 0.0 0.0 0.0 0.0 0.0 0.0 0.0 0.0
0.0 0.0 0.0 0.0 0.0 0.0 0.0 0.0 0.0 0.0 0.0 0.0 0.0 0.0 0.0 0.0 0.0 0.0 0.0 0.0 0.0 0.0 0.0 0.0 0.0 0.0 0.0 0.0 0.0 0.0 0.0 0.0 0.0 0.0 0.0 0.0 0.0 0.0 0.0 0.0 0.0 0.0 0.0 0.0 0.0 0.0 0.0
0.0 0.0 0.0 0.0 0.0 0.0 0.0 0.0 0.0 0.0 0.0 0.0 0.0 0.0 0.0 0.0 0.0 0.0 0.0 0.0 0.0 0.0 0.6 0.0 0.0 0.0 0.0 0.0 0.0 0.0 0.0 0.0 0.0 0.0 0.0 0.0 0.0 0.0 0.0 0.0 0.0 0.0 0.0 0.0 0.0 0.0 0.0
0.0 0.0 0.0 0.0 0.0 0.0 0.0 0.0 0.0 0.0 0.0 0.0 0.0 0.0 0.0 0.0 0.0 0.0 0.0 0.0 0.0 0.0 2.7 0.0 0.0 0.0 0.0 0.0 0.0 0.0 0.0 0.0 0.0 0.2 0.0 0.0 0.0 0.0 0.0 0.0 0.0 0.0 0.5 0.0 0.2 0.0 0.0
0.0 0.0 0.0 0.0 0.0 0.0 0.0 0.0 0.0 0.0 0.0 0.0 0.0 0.0 0.0 0.0 0.0 0.0 0.0 0.0 0.0 0.0 6.9 0.0 0.2 0.0 0.0 0.0 0.0 0.0 0.0 0.0 0.0 0.0 0.3 0.1 0.0 0.0 0.0 0.0 0.4 0.3 0.0 0.0 0.0 0.2 0.6
0.0 0.0 0.0 0.0 0.0 0.0 0.0 0.0 0.0 0.0 0.0 0.0 0.0 0.0 0.0 0.0 0.0 0.0 0.0 0.0 0.0 0.0 34.8 0.3 0.0 0.0 0.0 0.0 0.0 0.0 0.0 0.0 0.0 0.0 0.4 0.4 0.1 0.2 0.6 0.2 0.5 0.1 0.0 0.0 0.0 0.0 0.6
0.0 0.0 0.0 0.0 0.0 0.0 0.0 0.0 0.0 0.0 0.0 0.0 0.0 0.0 0.0 0.0 0.0 0.0 0.0 0.0 0.0 37.6 45.6 1.3 0.0 0.0 0.0 0.0 0.0 0.0 0.0 0.0 0.0 0.0 0.0 0.0 0.0 0.0 0.5 0.0 0.0 0.0 0.2 0.0 0.1 0.9 3.4
0.0 0.0 0.0 0.0 0.0 0.0 0.0 0.0 0.0 0.0 0.0 0.0 0.0 0.0 0.0 0.0 0.0 0.0 0.0 0.0 59.0 61.8 0.0 2.1 0.0 0.0 0.0 0.0 0.0 0.2 0.9 0.3 0.2 2.3 1.6 0.0 0.4 0.0 0.0 0.4 0.0 0.5 0.6 6.6 5.7 6.1 3.9
0.0 0.0 0.0 0.0 0.0 0.0 0.0 0.0 0.0 0.0 0.0 0.0 0.0 0.0 0.0 0.0 0.0 0.0 0.0 13.4 70.9 12.0 3.6 0.1 0.0 0.0 0.7 0.0 0.0 0.0 0.5 0.8 0.0 0.0 0.6 2.3 2.4 0.7 0.1 2.8 0.4 0.1 0.7 3.4 5.6 2.4 0.5
0.0 0.0 0.0 0.0 0.0 0.0 0.0 0.0 0.0 0.0 0.0 0.0 0.0 0.0 0.0 0.0 0.0 0.0 6.3 86.1 52.1 1.6 0.0 0.0 0.0 1.8 2.3 0.7 0.2 0.0 2.4 2.2 1.5 0.1 4.3 5.3 2.2 0.0 0.5 0.0 0.1 1.2 4.0 0.8 5.6 1.8 4.2
0.0 0.0 0.0 0.0 0.0 0.0 0.0 0.0 0.0 0.0 0.0 0.0 0.0 0.0 0.0 0.0 0.0 0.0 37.2 64.2 23.9 0.0 0.9 0.0 2.3 1.3 2.7 2.3 1.8 2.4 3.6 5.2 2.5 2.4 0.0 3.3 8.5 0.7 0.1 0.0 0.0 1.2 1.1 8.1 12.8 25.8 15.2
0.0 0.0 0.0 0.0 0.0 0.0 0.0 0.0 0.0 0.0 0.0 0.0 0.0 8.8 0.0 0.0 0.0 2.5 63.9 19.3 8.3 0.0 0.0 2.2 2.5 4.3 1.1 2.1 5.1 5.5 7.8 5.1 5.1 1.9 0.6 1.9 8.4 1.6 0.1 2.0 3.1 0.6 3.9 7.3 9.5 15.0 16.8
0.0 0.0 0.0 0.0 0.0 0.0 0.0 0.0 0.0 0.0 0.0 0.0 0.0 41.3 0.0 0.0 33.5 39.9 40.4 15.4 1.8 0.3 0.0 2.7 1.7 1.6 3.6 3.0 3.2 7.6 11.0 8.8 1.4 1.6 3.2 3.5 7.7 10.2 1.2 0.4 0.1 0.5 7.7 11.8 45.7 39.5 28.3
0.0 0.0 0.0 0.0 0.0 0.0 0.0 0.0 0.0 0.0 0.0 0.0 18.8 23.4 0.0 0.0 57.7 40.5 12.5 15.8 5.7 4.2 3.1 5.9 3.6 0.9 1.6 2.2 7.2 5.3 5.8 0.1 3.0 5.9 6.9 7.1 10.9 13.7 6.3 1.6 0.1 6.8 9.6 9.7 14.3 31.1 29.6
0.0 0.0 0.0 0.0 0.0 0.0 0.0 0.0 0.0 0.0 0.0 0.0 23.8 54.8 13.5 0.3 8.5 12.3 14.9 15.5 10.1 0.0 2.9 0.6 7.8 0.2 5.4 7.8 2.8 6.4 4.1 2.8 6.6 6.1 2.4 4.3 7.3 8.7 9.7 6.9 6.5 7.3 3.8 7.1 17.8 28.4 19.1
0.0 0.0 0.0 0.0 0.0 0.0 0.0 0.0 0.0 0.0 0.0 0.0 41.1 44.7 0.6 38.0 23.4 10.8 11.4 10.6 7.9 8.0 4.6 0.5 8.0 3.8 4.7 10.9 7.2 5.4 4.6 6.2 9.1 0.5 3.8 12.9 12.8 5.6 4.7 1.9 1.4 3.1 3.6 2.7 11.2 6.8 12.6
0.0 0.0 0.0 0.0 0.0 0.0 0.0 0.0 0.0 0.0 0.0 3.5 80.3 24.2 5.7 7.2 4.3 14.1 10.1 13.7 6.0 5.5 11.2 7.8 8.1 3.5 2.9 7.8 5.5 8.1 5.8 3.5 9.1 0.5 9.1 12.0 15.3 9.4 12.9 3.4 4.8 7.7 5.0 3.2 5.2 4.6 4.3
0.0 0.0 0.0 0.0 0.0 0.0 0.0 0.0 0.0 0.0 0.0 20.6 7.9 0.0 17.2 6.4 5.1 11.1 13.4 10.9 8.1 10.5 3.3 2.2 4.9 6.8 5.5 4.7 0.9 0.6 0.5 0.2 1.7 6.9 7.5 13.6 20.3 19.1 19.1 4.8 6.8 14.2 6.7 4.3 3.6 1.6 1.5
0.0 0.0 0.0 0.0 0.0 0.0 0.0 0.0 0.0 0.0 0.0 0.0 0.4 3.7 26.0 25.3 10.5 7.4 5.1 2.9 6.5 7.0 15.9 3.7 2.7 6.1 0.1 0.1 0.0 0.0 0.0 2.2 0.0 2.6 2.5 13.7 16.0 23.6 24.0 9.5 22.8 6.3 3.2 1.7 0.7 0.6 0.3
0.0 0.0 0.0 0.0 0.0 0.0 0.0 0.0 0.0 0.0 0.0 0.0 0.0 3.8 21.8 27.3 5.3 6.4 5.2 5.2 3.3 3.8 7.4 8.5 4.4 0.4 0.0 1.1 11.7 20.6 18.8 18.2 13.1 6.9 7.0 5.0 10.1 24.3 23.3 16.8 11.1 2.6 0.6 0.6 6.6 4.5 0.4
0.0 0.0 0.0 0.0 0.0 0.0 0.0 0.0 0.0 0.0 0.0 0.0 0.0 0.0 9.9 35.7 10.4 0.9 5.5 2.2 4.7 9.0 9.1 6.1 2.9 0.0 0.0 9.0 23.3 27.6 17.7 11.3 9.3 6.3 3.6 4.6 7.7 20.6 25.1 20.9 12.5 2.6 0.9 0.0 0.2 12.8 0.5
0.0 0.0 0.0 0.0 0.0 0.0 0.0 0.0 0.0 0.0 0.0 0.0 0.0 0.0 7.3 43.2 2.2 1.1 7.0 9.3 2.1 4.6 11.5 2.9 2.4 5.3 0.4 21.7 34.4 25.7 14.8 5.6 9.6 8.6 11.3 15.0 22.7 29.8 20.7 19.6 4.9 1.7 1.1 0.0 12.5 11.8 4.7
0.0 0.0 0.0 0.0 0.0 0.0 0.0 0.0 0.0 0.0 0.0 0.0 0.0 0.0 7.1 44.3 4.7 0.0 0.5 1.0 3.4 3.4 13.0 6.8 16.3 11.9 19.2 21.8 23.1 19.3 20.3 13.8 12.0 8.5 13.2 12.2 23.3 21.8 19.9 25.3 11.9 0.7 1.4 5.8 4.5 5.5 7.3
0.0 0.0 0.0 0.0 0.0 0.0 0.0 0.0 0.0 0.0 0.0 0.0 9.0 0.0 0.0 20.2 10.1 0.0 0.0 0.0 0.0 0.0 3.6 5.2 10.4 13.2 17.5 22.7 18.2 12.4 13.6 10.0 11.0 16.7 2.7 15.2 12.3 18.0 18.1 15.7 5.6 2.6 4.5 2.1 1.3 4.4 6.7

GFSGBSN_prec_snow_327.txt.gz
Snowfall_Accumulation
0.0 0.0 0.0 0.0 0.0 0.0 0.0 0.0 0.0 0.0 0.0 0.0 0.0 0.0 0.0 0.0 0.0 0.0 0.0 0.0 0.0 0.0 0.0 0.0 0.0 0.0 0.0 0.0 0.0 0.0 0.0 0.0 0.0 0.0 0.0 0.0 0.0 0.0 0.0 0.0 0.0 0.0 0.0 0.0 0.0 0.0 0.0
0.0 0.0 0.0 0.0 0.0 0.0 0.0 0.0 0.0 0.0 0.0 0.0 0.0 0.0 0.0 0.0 0.0 0.0 0.0 0.0 0.0 0.0 0.0 0.0 0.0 0.0 0.0 0.0 0.0 0.0 0.0 0.0 0.0 0.0 0.0 0.0 0.0 0.0 0.0 0.0 0.0 0.0 0.0 0.0 0.0 0.0 0.0
0.0 0.0 0.0 0.0 0.0 0.0 0.0 0.0 0.0 0.0 0.0 0.0 0.0 0.0 0.0 0.0 0.0 0.0 0.0 0.0 0.0 0.0 0.0 0.0 0.0 0.0 0.0 0.0 0.0 0.0 0.0 0.0 0.0 0.0 0.0 0.0 0.0 0.0 0.0 0.0 0.0 0.0 0.0 0.0 0.0 0.0 0.0
0.0 0.0 0.0 0.0 0.0 0.0 0.0 0.0 0.0 0.0 0.0 0.0 0.0 0.0 0.0 0.0 0.0 0.0 0.0 0.0 0.0 0.0 0.0 0.0 0.0 0.0 0.0 0.0 0.0 0.0 0.0 0.0 0.0 0.0 0.0 0.0 0.0 0.0 0.0 0.0 0.0 0.0 0.0 0.0 0.0 0.0 0.0
0.0 0.0 0.0 0.0 0.0 0.0 0.0 0.0 0.0 0.0 0.0 0.0 0.0 0.0 0.0 0.0 0.0 0.0 0.0 0.0 0.0 0.0 0.0 0.0 0.0 0.0 0.0 0.0 0.0 0.0 0.0 0.0 0.0 0.0 0.0 0.0 0.0 0.0 0.0 0.0 0.0 0.0 0.0 0.0 0.0 0.0 0.0
0.0 0.0 0.0 0.0 0.0 0.0 0.0 0.0 0.0 0.0 0.0 0.0 0.0 0.0 0.0 0.0 0.0 0.0 0.0 0.0 0.0 0.0 0.0 0.0 0.0 0.0 0.0 0.0 0.0 0.0 0.0 0.0 0.0 0.0 0.0 0.0 0.0 0.0 0.0 0.0 0.0 0.0 0.0 0.0 0.0 0.0 0.0
0.0 0.0 0.0 0.0 0.0 0.0 0.0 0.0 0.0 0.0 0.0 0.0 0.0 0.0 0.0 0.0 0.0 0.0 0.0 0.0 0.0 0.0 0.0 0.0 0.0 0.0 0.0 0.0 0.0 0.0 0.0 0.0 0.0 0.0 0.0 0.0 0.0 0.0 0.0 0.0 0.0 0.0 0.0 0.0 0.0 0.0 0.0
0.0 0.0 0.0 0.0 0.0 0.0 0.0 0.0 0.0 0.0 0.0 0.0 0.0 0.0 0.0 0.0 0.0 0.0 0.0 0.0 0.0 0.0 0.6 0.0 0.0 0.0 0.0 0.0 0.0 0.0 0.0 0.0 0.0 0.0 0.0 0.0 0.0 0.0 0.0 0.0 0.0 0.0 0.0 0.0 0.0 0.0 0.0
0.0 0.0 0.0 0.0 0.0 0.0 0.0 0.0 0.0 0.0 0.0 0.0 0.0 0.0 0.0 0.0 0.0 0.0 0.0 0.0 0.0 0.0 2.7 0.0 0.0 0.0 0.0 0.0 0.0 0.0 0.0 0.0 0.0 0.2 0.0 0.0 0.0 0.0 0.0 0.0 0.0 0.0 0.5 0.0 0.2 0.0 0.0
0.0 0.0 0.0 0.0 0.0 0.0 0.0 0.0 0.0 0.0 0.0 0.0 0.0 0.0 0.0 0.0 0.0 0.0 0.0 0.0 0.0 0.0 6.9 0.0 0.2 0.0 0.0 0.0 0.0 0.0 0.0 0.0 0.0 0.0 0.3 0.1 0.0 0.0 0.0 0.0 0.4 0.3 0.0 0.0 0.0 0.2 0.6
0.0 0.0 0.0 0.0 0.0 0.0 0.0 0.0 0.0 0.0 0.0 0.0 0.0 0.0 0.0 0.0 0.0 0.0 0.0 0.0 0.0 0.0 34.8 0.3 0.0 0.0 0.0 0.0 0.0 0.0 0.0 0.0 0.0 0.0 0.4 0.4 0.1 0.2 0.6 0.2 0.5 0.1 0.0 0.0 0.0 0.0 0.6
0.0 0.0 0.0 0.0 0.0 0.0 0.0 0.0 0.0 0.0 0.0 0.0 0.0 0.0 0.0 0.0 0.0 0.0 0.0 0.0 0.0 37.6 45.6 1.3 0.0 0.0 0.0 0.0 0.0 0.0 0.0 0.0 0.0 0.0 0.0 0.0 0.0 0.0 0.5 0.0 0.0 0.0 0.2 0.0 0.1 0.9 3.4
0.0 0.0 0.0 0.0 0.0 0.0 0.0 0.0 0.0 0.0 0.0 0.0 0.0 0.0 0.0 0.0 0.0 0.0 0.0 0.0 59.0 61.8 0.0 2.1 0.0 0.0 0.0 0.0 0.0 0.2 0.9 0.3 0.2 2.3 1.6 0.0 0.4 0.0 0.0 0.4 0.0 0.5 0.6 6.6 5.7 6.1 3.9
0.0 0.0 0.0 0.0 0.0 0.0 0.0 0.0 0.0 0.0 0.0 0.0 0.0 0.0 0.0 0.0 0.0 0.0 0.0 13.4 70.9 12.0 3.6 0.1 0.0 0.0 0.7 0.0 0.0 0.0 0.5 0.9 0.0 0.0 0.6 2.3 2.4 0.7 0.1 2.8 0.4 0.1 0.7 3.4 5.6 2.4 0.5
0.0 0.0 0.0 0.0 0.0 0.0 0.0 0.0 0.0 0.0 0.0 0.0 0.0 0.0 0.0 0.0 0.0 0.0 6.3 86.1 52.2 1.7 0.0 0.0 0.0 1.8 2.3 0.7 0.2 0.0 2.4 3.1 1.8 0.1 4.3 5.3 2.2 0.0 0.5 0.0 0.1 1.2 4.0 0.8 5.6 1.8 4.2
0.0 0.0 0.0 0.0 0.0 0.0 0.0 0.0 0.0 0.0 0.0 0.0 0.0 0.0 0.0 0.0 0.0 0.0 37.2 64.2 24.2 0.0 0.9 0.0 2.3 1.4 2.7 2.3 1.8 2.4 4.1 6.9 3.5 2.6 0.0 3.3 8.5 0.7 0.1 0.0 0.0 1.2 1.1 8.1 12.8 25.8 15.2
0.0 0.0 0.0 0.0 0.0 0.0 0.0 0.0 0.0 0.0 0.0 0.0 0.0 8.8 0.0 0.0 0.0 2.5 63.9 19.3 8.3 0.0 0.0 2.2 2.7 4.3 1.1 2.1 5.1 5.5 8.2 6.3 6.1 2.3 0.7 1.9 8.4 1.6 0.1 2.0 3.1 0.6 3.9 7.3 9.5 15.0 16.8
0.0 0.0 0.0 0.0 0.0 0.0 0.0 0.0 0.0 0.0 0.0 0.0 0.0 41.3 0.0 0.0 33.5 39.9 40.4 15.4 1.8 0.3 0.0 2.7 1.7 1.7 3.7 3.0 3.2 7.6 11.1 8.8 1.4 2.6 3.9 3.6 7.7 10.2 1.2 0.4 0.1 0.5 7.7 11.8 45.7 39.5 28.3
0.0 0.0 0.0 0.0 0.0 0.0 0.0 0.0 0.0 0.0 0.0 0.0 18.8 23.4 0.0 0.0 57.7 40.5 12.5 15.8 5.7 4.2 3.1 5.9 3.6 0.9 1.6 2.2 7.2 5.3 5.8 0.1 3.0 6.5 7.8 7.5 10.9 13.7 6.3 1.6 0.1 6.8 9.6 9.7 14.3 31.1 29.6
0.0 0.0 0.0 0.0 0.0 0.0 0.0 0.0 0.0 0.0 0.0 0.0 23.8 54.8 13.5 0.3 8.5 12.3 14.9 15.5 10.1 0.0 2.9 0.6 7.8 0.2 5.4 7.8 2.8 6.4 4.1 2.8 6.6 6.1 3.0 4.8 7.7 8.8 9.7 6.9 6.5 7.3 3.8 7.1 17.8 28.4 19.1
0.0 0.0 0.0 0.0 0.0 0.0 0.0 0.0 0.0 0.0 0.0 0.0 41.1 44.7 0.6 38.0 23.4 10.8 11.4 10.6 7.9 8.0 4.6 0.5 8.0 3.8 4.7 10.9 7.2 5.4 4.6 6.2 9.1 0.5 3.8 13.6 13.5 5.6 4.7 1.9 1.4 3.1 3.6 2.7 11.2 6.8 12.6
0.0 0.0 0.0 0.0 0.0 0.0 0.0 0.0 0.0 0.0 0.0 3.5 80.3 24.2 5.7 7.2 4.3 14.1 10.1 13.7 6.0 5.5 11.2 7.8 8.2 3.5 2.9 7.8 5.5 8.1 5.8 3.5 9.1 0.5 9.1 12.5 15.3 9.4 13.1 3.4 4.8 7.7 5.0 3.2 5.2 4.6 4.3
0.0 0.0 0.0 0.0 0.0 0.0 0.0 0.0 0.0 0.0 0.0 20.6 7.9 0.0 17.2 6.4 5.1 11.1 13.4 10.9 8.1 10.5 3.3 2.2 4.9 6.9 5.5 4.7 1.0 0.6 0.5 0.2 1.7 6.9 7.5 13.6 20.9 19.1 19.3 5.1 6.8 14.2 6.7 4.3 3.6 1.6 1.5
0.0 0.0 0.0 0.0 0.0 0.0 0.0 0.0 0.0 0.0 0.0 0.0 0.4 3.7 26.0 25.3 10.5 7.4 5.1 2.9 6.5 7.0 15.9 3.7 2.7 6.3 0.3 0.1 0.0 0.0 0.0 2.2 0.0 2.6 2.5 13.8 16.3 24.1 24.0 10.5 23.6 6.8 3.2 1.7 0.7 0.6 0.3
0.0 0.0 0.0 0.0 0.0 0.0 0.0 0.0 0.0 0.0 0.0 0.0 0.0 3.8 21.8 27.3 5.3 6.4 5.2 5.2 3.3 3.8 7.4 8.5 4.4 0.4 0.0 1.1 11.9 20.6 18.8 18.2 13.2 6.9 7.0 5.0 10.3 25.2 24.3 18.1 13.5 3.1 0.9 0.7 6.7 4.5 0.4
0.0 0.0 0.0 0.0 0.0 0.0 0.0 0.0 0.0 0.0 0.0 0.0 0.0 0.0 9.9 35.7 10.4 0.9 5.5 2.2 4.7 9.0 9.1 6.1 2.9 0.0 0.0 9.1 23.7 28.4 18.2 11.8 10.4 6.3 3.6 4.7 7.9 21.4 26.1 22.6 15.3 4.2 1.5 0.1 0.2 12.9 0.5
0.0 0.0 0.0 0.0 0.0 0.0 0.0 0.0 0.0 0.0 0.0 0.0 0.0 0.0 7.3 43.2 2.2 1.1 7.0 9.3 2.1 4.6 11.5 2.9 2.4 5.3 0.4 21.7 34.6 26.2 15.3 5.9 9.6 8.8 11.5 15.4 23.2 30.7 21.9 20.9 6.4 4.4 2.7 0.1 12.5 12.0 4.8
0.0 0.0 0.0 0.0 0.0 0.0 0.0 0.0 0.0 0.0 0.0 0.0 0.0 0.0 7.1 44.3 4.7 0.0 0.5 1.0 3.4 3.4 13.0 6.8 16.3 11.9 19.2 21.8 23.4 19.9 21.0 14.3 12.6 9.2 13.5 12.5 23.9 22.5 20.8 25.3 13.2 2.8 3.3 6.7 5.3 5.8 7.3
0.0 0.0 0.0 0.0 0.0 0.0 0.0 0.0 0.0 0.0 0.0 0.0 9.0 0.0 0.0 20.2 10.1 0.0 0.0 0.0 0.0 0.0 3.6 5.2 10.4 13.2 17.5 23.2 18.8 12.9 14.1 10.7 11.6 17.3 2.7 15.7 12.9 18.5 18.8 17.1 7.2 4.5 6.9 4.3 3.1 5.4 6.7

GFSGBSN_prec_snow_330.txt.gz
Snowfall_Accumulation
0.0 0.0 0.0 0.0 0.0 0.0 0.0 0.0 0.0 0.0 0.0 0.0 0.0 0.0 0.0 0.0 0.0 0.0 0.0 0.0 0.0 0.0 0.0 0.0 0.0 0.0 0.0 0.0 0.0 0.0 0.0 0.0 0.0 0.0 0.0 0.0 0.0 0.0 0.0 0.0 0.0 0.0 0.0 0.0 0.0 0.0 0.0
0.0 0.0 0.0 0.0 0.0 0.0 0.0 0.0 0.0 0.0 0.0 0.0 0.0 0.0 0.0 0.0 0.0 0.0 0.0 0.0 0.0 0.0 0.0 0.0 0.0 0.0 0.0 0.0 0.0 0.0 0.0 0.0 0.0 0.0 0.0 0.0 0.0 0.0 0.0 0.0 0.0 0.0 0.0 0.0 0.0 0.0 0.0
0.0 0.0 0.0 0.0 0.0 0.0 0.0 0.0 0.0 0.0 0.0 0.0 0.0 0.0 0.0 0.0 0.0 0.0 0.0 0.0 0.0 0.0 0.0 0.0 0.0 0.0 0.0 0.0 0.0 0.0 0.0 0.0 0.0 0.0 0.0 0.0 0.0 0.0 0.0 0.0 0.0 0.0 0.0 0.0 0.0 0.0 0.0
0.0 0.0 0.0 0.0 0.0 0.0 0.0 0.0 0.0 0.0 0.0 0.0 0.0 0.0 0.0 0.0 0.0 0.0 0.0 0.0 0.0 0.0 0.0 0.0 0.0 0.0 0.0 0.0 0.0 0.0 0.0 0.0 0.0 0.0 0.0 0.0 0.0 0.0 0.0 0.0 0.0 0.0 0.0 0.0 0.0 0.0 0.0
0.0 0.0 0.0 0.0 0.0 0.0 0.0 0.0 0.0 0.0 0.0 0.0 0.0 0.0 0.0 0.0 0.0 0.0 0.0 0.0 0.0 0.0 0.0 0.0 0.0 0.0 0.0 0.0 0.0 0.0 0.0 0.0 0.0 0.0 0.0 0.0 0.0 0.0 0.0 0.0 0.0 0.0 0.0 0.0 0.0 0.0 0.0
0.0 0.0 0.0 0.0 0.0 0.0 0.0 0.0 0.0 0.0 0.0 0.0 0.0 0.0 0.0 0.0 0.0 0.0 0.0 0.0 0.0 0.0 0.0 0.0 0.0 0.0 0.0 0.0 0.0 0.0 0.0 0.0 0.0 0.0 0.0 0.0 0.0 0.0 0.0 0.0 0.0 0.0 0.0 0.0 0.0 0.0 0.0
0.0 0.0 0.0 0.0 0.0 0.0 0.0 0.0 0.0 0.0 0.0 0.0 0.0 0.0 0.0 0.0 0.0 0.0 0.0 0.0 0.0 0.0 0.0 0.0 0.0 0.0 0.0 0.0 0.0 0.0 0.0 0.0 0.0 0.0 0.0 0.0 0.0 0.0 0.0 0.0 0.0 0.0 0.0 0.0 0.0 0.0 0.0
0.0 0.0 0.0 0.0 0.0 0.0 0.0 0.0 0.0 0.0 0.0 0.0 0.0 0.0 0.0 0.0 0.0 0.0 0.0 0.0 0.0 0.0 0.6 0.0 0.0 0.0 0.0 0.0 0.0 0.0 0.0 0.0 0.0 0.0 0.0 0.0 0.0 0.0 0.0 0.0 0.0 0.0 0.0 0.0 0.0 0.0 0.0
0.0 0.0 0.0 0.0 0.0 0.0 0.0 0.0 0.0 0.0 0.0 0.0 0.0 0.0 0.0 0.0 0.0 0.0 0.0 0.0 0.0 0.0 2.7 0.0 0.0 0.0 0.0 0.0 0.0 0.0 0.0 0.0 0.0 0.2 0.0 0.0 0.0 0.0 0.0 0.0 0.0 0.0 0.5 0.0 0.2 0.0 0.0
0.0 0.0 0.0 0.0 0.0 0.0 0.0 0.0 0.0 0.0 0.0 0.0 0.0 0.0 0.0 0.0 0.0 0.0 0.0 0.0 0.0 0.0 6.9 0.0 0.2 0.0 0.0 0.0 0.0 0.0 0.0 0.0 0.0 0.0 0.3 0.1 0.0 0.0 0.0 0.0 0.4 0.3 0.0 0.0 0.0 0.2 0.6
0.0 0.0 0.0 0.0 0.0 0.0 0.0 0.0 0.0 0.0 0.0 0.0 0.0 0.0 0.0 0.0 0.0 0.0 0.0 0.0 0.0 0.0 34.8 0.3 0.0 0.0 0.0 0.0 0.0 0.0 0.0 0.0 0.0 0.0 0.4 0.4 0.1 0.2 0.6 0.2 0.5 0.1 0.0 0.0 0.0 0.0 0.6
0.0 0.0 0.0 0.0 0.0 0.0 0.0 0.0 0.0 0.0 0.0 0.0 0.0 0.0 0.0 0.0 0.0 0.0 0.0 0.0 0.0 37.6 45.6 1.3 0.0 0.0 0.0 0.0 0.0 0.0 0.0 0.0 0.0 0.0 0.0 0.0 0.0 0.0 0.5 0.0 0.0 0.0 0.2 0.0 0.1 0.9 3.4
0.0 0.0 0.0 0.0 0.0 0.0 0.0 0.0 0.0 0.0 0.0 0.0 0.0 0.0 0.0 0.0 0.0 0.0 0.0 0.0 59.0 61.8 0.0 2.1 0.0 0.0 0.0 0.0 0.0 0.2 0.9 0.5 0.2 2.3 1.6 0.0 0.4 0.0 0.0 0.4 0.0 0.5 0.6 6.6 5.7 6.1 3.9
0.0 0.0 0.0 0.0 0.0 0.0 0.0 0.0 0.0 0.0 0.0 0.0 0.0 0.0 0.0 0.0 0.0 0.0 0.0 13.4 70.9 12.0 3.6 0.1 0.0 0.0 0.7 0.0 0.0 0.0 0.5 1.6 0.5 0.1 0.6 2.4 2.4 0.7 0.1 2.8 0.4 0.1 0.7 3.4 5.6 2.4 0.5
0.0 0.0 0.0 0.0 0.0 0.0 0.0 0.0 0.0 0.0 0.0 0.0 0.0 0.0 0.0 0.0 0.0 0.0 6.3 86.1 52.3 1.7 0.0 0.0 0.0 1.9 2.3 0.7 0.2 0.0 2.7 4.1 2.8 0.8 4.6 5.3 2.2 0.0 0.5 0.0 0.1 1.2 4.0 0.8 5.6 1.8 4.2
0.0 0.0 0.0 0.0 0.0 0.0 0.0 0.0 0.0 0.0 0.0 0.0 0.0 0.0 0.0 0.0 0.0 0.0 37.2 64.2 24.4 0.0 0.9 0.0 2.3 1.6 3.1 2.3 1.8 2.4 4.3 8.2 4.4 3.4 0.9 3.4 8.5 0.7 0.1 0.0 0.0 1.2 1.1 8.1 12.8 25.8 15.2
0.0 0.0 0.0 0.0 0.0 0.0 0.0 0.0 0.0 0.0 0.0 0.0 0.0 8.8 0.0 0.0 0.0 2.5 63.9 19.3 8.3 0.0 0.0 2.2 2.7 4.6 1.4 2.1 5.1 5.6 8.4 6.6 6.1 2.3 1.7 2.6 8.4 1.6 0.1 2.0 3.1 0.6 3.9 7.3 9.5 15.0 16.8
0.0 0.0 0.0 0.0 0.0 0.0 0.0 0.0 0.0 0.0 0.0 0.0 0.0 41.3 0.0 0.0 33.5 39.9 40.4 15.4 1.8 0.3 0.0 2.7 1.7 2.0 3.8 3.1 3.2 7.6 11.3 8.9 1.4 2.6 4.9 4.5 7.8 10.2 1.2 0.4 0.1 0.5 7.7 11.8 45.7 39.5 28.3
0.0 0.0 0.0 0.0 0.0 0.0 0.0 0.0 0.0 0.0 0.0 0.0 18.8 23.4 0.0 0.0 57.7 40.5 12.5 15.8 5.7 4.2 3.1 5.9 3.7 0.9 1.7 2.4 7.3 5.3 5.8 0.1 3.0 6.5 8.9 8.3 11.2 14.0 6.3 1.6 0.1 6.8 9.6 9.7 14.3 31.1 29.6
0.0 0.0 0.0 0.0 0.0 0.0 0.0 0.0 0.0 0.0 0.0 0.0 23.8 54.8 13.5 0.3 8.5 12.3 14.9 15.5 10.1 0.0 2.9 0.6 7.9 0.2 5.5 7.8 2.9 6.4 4.1 2.8 6.6 6.3 3.4 5.6 8.1 9.3 9.9 6.9 6.5 7.3 3.8 7.1 17.8 28.4 19.1
0.0 0.0 0.0 0.0 0.0 0.0 0.0 0.0 0.0 0.0 0.0 0.0 41.1 44.7 0.6 38.0 23.4 10.8 11.4 10.6 7.9 8.0 4.6 0.5 8.0 3.9 4.9 11.3 7.3 5.4 4.6 6.2 9.1 0.5 3.8 14.1 14.0 5.6 4.7 1.9 1.4 3.1 3.6 2.7 11.2 6.8 12.6
0.0 0.0 0.0 0.0 0.0 0.0 0.0 0.0 0.0 0.0 0.0 3.5 80.3 24.2 5.7 7.2 4.3 14.1 10.1 13.7 6.0 5.5 11.2 7.8 8.2 3.6 3.0 8.4 6.1 8.2 5.8 3.5 9.1 0.5 9.1 12.9 15.3 9.4 13.1 3.4 4.8 7.7 5.0 3.2 5.2 4.6 4.3
0.0 0.0 0.0 0.0 0.0 0.0 0.0 0.0 0.0 0.0 0.0 20.6 7.9 0.0 17.2 6.4 5.1 11.1 13.4 10.9 8.2 10.6 3.3 2.2 5.0 7.3 5.8 5.3 1.8 0.8 0.5 0.2 1.8 6.9 7.5 14.0 21.2 19.1 20.0 5.6 7.0 14.2 7.0 4.3 3.6 1.6 1.5
0.0 0.0 0.0 0.0 0.0 0.0 0.0 0.0 0.0 0.0 0.0 0.0 0.4 3.7 26.0 25.3 10.5 7.4 5.1 2.9 6.5 7.1 16.0 3.7 2.7 7.5 1.1 0.4 0.0 0.0 0.0 2.2 0.0 2.6 2.5 14.1 16.5 24.3 24.7 11.1 24.5 7.8 3.5 1.8 0.8 0.6 0.3
0.0 0.0 0.0 0.0 0.0 0.0 0.0 0.0 0.0 0.0 0.0 0.0 0.0 3.8 21.8 27.3 5.3 6.4 5.2 5.2 3.3 3.8 7.4 8.6 4.5 0.4 0.0 1.1 12.1 20.6 18.8 18.2 13.3 6.9 7.0 5.4 11.0 25.5 26.2 19.7 14.7 3.5 1.2 1.1 6.8 4.6 0.4
0.0 0.0 0.0 0.0 0.0 0.0 0.0 0.0 0.0 0.0 0.0 0.0 0.0 0.0 9.9 35.7 10.4 0.9 5.5 2.2 4.7 9.0 9.1 6.1 2.9 0.0 0.0 9.1 23.9 29.1 18.6 12.3 10.9 6.4 3.9 5.4 8.9 22.2 28.4 24.1 17.1 5.3 2.1 0.4 0.3 13.0 0.5
0.0 0.0 0.0 0.0 0.0 0.0 0.0 0.0 0.0 0.0 0.0 0.0 0.0 0.0 7.3 43.2 2.2 1.1 7.0 9.3 2.1 4.7 11.5 2.9 2.4 5.3 0.4 21.7 34.7 26.5 15.6 5.9 9.9 9.3 12.1 16.0 24.0 31.6 23.1 21.4 8.2 6.4 4.1 0.1 12.7 12.5 4.9
0.0 0.0 0.0 0.0 0.0 0.0 0.0 0.0 0.0 0.0 0.0 0.0 0.0 0.0 7.1 44.3 4.7 0.0 0.5 1.0 3.4 3.4 13.0 6.8 16.3 11.9 19.2 21.9 23.6 20.2 21.4 14.9 13.5 9.9 14.1 13.0 24.4 23.1 21.2 25.7 15.0 5.3 4.6 7.5 6.6 6.8 7.3
0.0 0.0 0.0 0.0 0.0 0.0 0.0 0.0 0.0 0.0 0.0 0.0 9.0 0.0 0.0 20.2 10.1 0.0 0.0 0.0 0.0 0.0 3.6 5.2 10.4 13.2 17.8 23.7 19.1 13.3 14.5 11.6 12.0 17.9 2.7 16.7 13.8 19.1 19.6 18.8 9.6 7.2 9.8 6.8 5.3 6.8 6.9

GFSGBSN_prec_snow_333.txt.gz
Snowfall_Accumulation
0.0 0.0 0.0 0.0 0.0 0.0 0.0 0.0 0.0 0.0 0.0 0.0 0.0 0.0 0.0 0.0 0.0 0.0 0.0 0.0 0.0 0.0 0.0 0.0 0.0 0.0 0.0 0.0 0.0 0.0 0.0 0.0 0.0 0.0 0.0 0.0 0.0 0.0 0.0 0.0 0.0 0.0 0.0 0.0 0.0 0.0 0.0
0.0 0.0 0.0 0.0 0.0 0.0 0.0 0.0 0.0 0.0 0.0 0.0 0.0 0.0 0.0 0.0 0.0 0.0 0.0 0.0 0.0 0.0 0.0 0.0 0.0 0.0 0.0 0.0 0.0 0.0 0.0 0.0 0.0 0.0 0.0 0.0 0.0 0.0 0.0 0.0 0.0 0.0 0.0 0.0 0.0 0.0 0.0
0.0 0.0 0.0 0.0 0.0 0.0 0.0 0.0 0.0 0.0 0.0 0.0 0.0 0.0 0.0 0.0 0.0 0.0 0.0 0.0 0.0 0.0 0.0 0.0 0.0 0.0 0.0 0.0 0.0 0.0 0.0 0.0 0.0 0.0 0.0 0.0 0.0 0.0 0.0 0.0 0.0 0.0 0.0 0.0 0.0 0.0 0.0
0.0 0.0 0.0 0.0 0.0 0.0 0.0 0.0 0.0 0.0 0.0 0.0 0.0 0.0 0.0 0.0 0.0 0.0 0.0 0.0 0.0 0.0 0.0 0.0 0.0 0.0 0.0 0.0 0.0 0.0 0.0 0.0 0.0 0.0 0.0 0.0 0.0 0.0 0.0 0.0 0.0 0.0 0.0 0.0 0.0 0.0 0.0
0.0 0.0 0.0 0.0 0.0 0.0 0.0 0.0 0.0 0.0 0.0 0.0 0.0 0.0 0.0 0.0 0.0 0.0 0.0 0.0 0.0 0.0 0.0 0.0 0.0 0.0 0.0 0.0 0.0 0.0 0.0 0.0 0.0 0.0 0.0 0.0 0.0 0.0 0.0 0.0 0.0 0.0 0.0 0.0 0.0 0.0 0.0
0.0 0.0 0.0 0.0 0.0 0.0 0.0 0.0 0.0 0.0 0.0 0.0 0.0 0.0 0.0 0.0 0.0 0.0 0.0 0.0 0.0 0.0 0.0 0.0 0.0 0.0 0.0 0.0 0.0 0.0 0.0 0.0 0.0 0.0 0.0 0.0 0.0 0.0 0.0 0.0 0.0 0.0 0.0 0.0 0.0 0.0 0.0
0.0 0.0 0.0 0.0 0.0 0.0 0.0 0.0 0.0 0.0 0.0 0.0 0.0 0.0 0.0 0.0 0.0 0.0 0.0 0.0 0.0 0.0 0.0 0.0 0.0 0.0 0.0 0.0 0.0 0.0 0.0 0.0 0.0 0.0 0.0 0.0 0.0 0.0 0.0 0.0 0.0 0.0 0.0 0.0 0.0 0.0 0.0
0.0 0.0 0.0 0.0 0.0 0.0 0.0 0.0 0.0 0.0 0.0 0.0 0.0 0.0 0.0 0.0 0.0 0.0 0.0 0.0 0.0 0.0 0.6 0.0 0.0 0.0 0.0 0.0 0.0 0.0 0.0 0.0 0.0 0.0 0.0 0.0 0.0 0.0 0.0 0.0 0.0 0.0 0.0 0.0 0.0 0.0 0.0
0.0 0.0 0.0 0.0 0.0 0.0 0.0 0.0 0.0 0.0 0.0 0.0 0.0 0.0 0.0 0.0 0.0 0.0 0.0 0.0 0.0 0.0 2.7 0.0 0.0 0.0 0.0 0.0 0.0 0.0 0.0 0.0 0.0 0.2 0.0 0.0 0.0 0.0 0.0 0.0 0.0 0.0 0.5 0.0 0.2 0.0 0.0
0.0 0.0 0.0 0.0 0.0 0.0 0.0 0.0 0.0 0.0 0.0 0.0 0.0 0.0 0.0 0.0 0.0 0.0 0.0 0.0 0.0 0.0 6.9 0.0 0.2 0.0 0.0 0.0 0.0 0.0 0.0 0.0 0.0 0.0 0.3 0.1 0.0 0.0 0.0 0.0 0.4 0.3 0.0 0.0 0.0 0.2 0.6
0.0 0.0 0.0 0.0 0.0 0.0 0.0 0.0 0.0 0.0 0.0 0.0 0.0 0.0 0.0 0.0 0.0 0.0 0.0 0.0 0.0 0.0 34.8 0.3 0.0 0.0 0.0 0.0 0.0 0.0 0.0 0.0 0.0 0.0 0.4 0.4 0.1 0.2 0.6 0.2 0.5 0.1 0.0 0.0 0.0 0.0 0.6
0.0 0.0 0.0 0.0 0.0 0.0 0.0 0.0 0.0 0.0 0.0 0.0 0.0 0.0 0.0 0.0 0.0 0.0 0.0 0.0 0.0 37.7 45.6 1.3 0.0 0.0 0.0 0.0 0.0 0.0 0.0 0.0 0.0 0.0 0.0 0.0 0.0 0.0 0.5 0.0 0.0 0.0 0.2 0.0 0.1 0.9 3.4
0.0 0.0 0.0 0.0 0.0 0.0 0.0 0.0 0.0 0.0 0.0 0.0 0.0 0.0 0.0 0.0 0.0 0.0 0.0 0.0 59.0 61.8 0.0 2.1 0.0 0.0 0.0 0.0 0.0 0.2 0.9 0.5 0.6 2.9 2.1 0.0 0.4 0.0 0.0 0.4 0.0 0.5 0.6 6.6 5.7 6.1 3.9
0.0 0.0 0.0 0.0 0.0 0.0 0.0 0.0 0.0 0.0 0.0 0.0 0.0 0.0 0.0 0.0 0.0 0.0 0.0 13.4 70.9 12.0 3.6 0.1 0.0 0.0 0.7 0.2 0.0 0.0 0.5 1.6 1.2 0.1 0.7 2.4 3.0 0.7 0.1 2.8 0.4 0.1 0.7 3.4 5.6 2.4 0.5
0.0 0.0 0.0 0.0 0.0 0.0 0.0 0.0 0.0 0.0 0.0 0.0 0.0 0.0 0.0 0.0 0.0 0.0 6.3 86.1 52.3 1.7 0.0 0.0 0.0 1.9 2.3 0.7 0.2 0.0 2.7 4.8 3.4 1.0 5.2 5.3 2.7 0.0 0.5 0.0 0.1 1.2 4.0 0.8 5.6 1.8 4.2
0.0 0.0 0.0 0.0 0.0 0.0 0.0 0.0 0.0 0.0 0.0 0.0 0.0 0.0 0.0 0.0 0.0 0.0 37.2 64.2 24.4 0.0 0.9 0.0 2.3 1.6 3.3 2.3 1.8 2.4 4.3 9.8 4.6 3.4 0.9 3.4 8.5 0.7 0.1 0.0 0.0 1.2 1.1 8.1 12.8 25.8 15.2
0.0 0.0 0.0 0.0 0.0 0.0 0.0 0.0 0.0 0.0 0.0 0.0 0.0 8.8 0.0 0.0 0.0 2.5 63.9 19.3 8.3 0.0 0.0 2.2 2.7 4.6 1.4 2.1 5.1 5.6 8.9 7.8 6.1 2.3 1.7 3.8 8.7 1.8 0.1 2.0 3.1 0.6 3.9 7.3 9.5 15.0 16.8
0.0 0.0 0.0 0.0 0.0 0.0 0.0 0.0 0.0 0.0 0.0 0.0 0.0 41.3 0.0 0.0 33.5 39.9 40.4 15.4 1.8 0.3 0.0 2.7 1.7 2.0 4.0 3.1 3.2 7.6 11.9 9.2 1.4 2.6 5.1 5.6 8.0 10.2 1.3 0.4 0.1 0.5 7.7 11.8 45.7 39.5 28.3
0.0 0.0 0.0 0.0 0.0 0.0 0.0 0.0 0.0 0.0 0.0 0.0 18.8 23.4 0.0 0.0 57.7 40.5 12.5 15.8 5.7 4.2 3.1 5.9 3.7 0.9 1.7 2.7 7.5 5.3 5.8 0.1 3.0 6.6 9.4 9.0 11.5 14.5 6.6 1.6 0.1 6.8 9.6 9.7 14.3 31.1 29.6
0.0 0.0 0.0 0.0 0.0 0.0 0.0 0.0 0.0 0.0 0.0 0.0 23.8 54.8 13.5 0.3 8.5 12.3 14.9 15.5 10.1 0.0 2.9 0.6 8.0 0.2 5.8 8.2 2.9 6.4 4.1 2.8 6.6 6.4 3.4 6.0 8.4 10.5 10.9 6.9 6.6 7.3 3.8 7.1 17.8 28.4 19.1
0.0 0.0 0.0 0.0 0.0 0.0 0.0 0.0 0.0 0.0 0.0 0.0 41.1 44.7 0.6 38.0 23.4 10.8 11.4 10.6 7.9 8.0 4.6 0.5 8.0 4.2 5.2 11.9 7.7 5.6 4.6 6.2 9.1 0.5 3.8 14.5 14.2 5.6 4.7 1.9 1.5 3.1 3.6 2.7 11.2 6.8 12.6
0.0 0.0 0.0 0.0 0.0 0.0 0.0 0.0 0.0 0.0 0.0 3.5 80.3 24.2 5.7 7.2 4.3 14.1 10.1 13.7 6.0 5.5 11.2 8.1 8.5 3.9 3.4 9.4 6.8 8.5 5.8 3.5 9.1 0.5 9.1 13.1 15.3 9.4 13.2 3.4 4.9 7.8 5.0 3.2 5.2 4.6 4.3
0.0 0.0 0.0 0.0 0.0 0.0 0.0 0.0 0.0 0.0 0.0 20.6 7.9 0.0 17.2 6.4 5.1 11.1 13.4 10.9 8.2 10.6 3.3 2.5 5.5 8.0 6.5 5.9 2.2 0.9 0.5 0.2 1.8 6.9 7.6 14.1 21.3 19.5 21.0 6.7 7.2 14.2 7.6 4.5 3.7 1.6 1.5
0.0 0.0 0.0 0.0 0.0 0.0 0.0 0.0 0.0 0.0 0.0 0.0 0.4 3.7 26.0 25.3 10.5 7.4 5.1 2.9 6.5 7.1 16.1 3.8 2.7 8.1 1.7 0.4 0.0 0.0 0.0 2.2 0.0 2.6 2.6 14.3 16.6 24.7 25.9 13.1 25.6 8.7 3.9 1.8 0.9 0.6 0.3
0.0 0.0 0.0 0.0 0.0 0.0 0.0 0.0 0.0 0.0 0.0 0.0 0.0 3.8 21.8 27.3 5.3 6.4 5.2 5.2 3.3 3.8 7.4 8.6 4.5 0.4 0.0 1.1 12.1 20.6 18.8 18.2 13.4 7.2 7.6 6.1 11.3 26.7 28.6 21.8 15.5 3.5 1.4 1.4 6.9 4.8 0.4
0.0 0.0 0.0 0.0 0.0 0.0 0.0 0.0 0.0 0.0 0.0 0.0 0.0 0.0 9.9 35.7 10.4 0.9 5.5 2.2 4.7 9.0 9.1 6.1 2.9 0.0 0.0 9.2 24.3 29.6 18.9 13.1 11.3 6.9 4.4 6.2 10.1 24.0 28.4 25.0 17.6 6.0 2.5 0.4 0.5 13.3 0.6
0.0 0.0 0.0 0.0 0.0 0.0 0.0 0.0 0.0 0.0 0.0 0.0 0.0 0.0 7.3 43.2 2.2 1.1 7.0 9.3 2.1 4.7 11.5 2.9 2.4 5.3 0.4 21.7 34.7 26.7 16.1 6.2 10.5 10.0 12.7 16.3 24.6 32.3 23.6 21.6 8.9 7.7 4.8 0.1 13.0 13.1 5.4
0.0 0.0 0.0 0.0 0.0 0.0 0.0 0.0 0.0 0.0 0.0 0.0 0.0 0.0 7.1 44.3 4.7 0.0 0.5 1.0 3.4 3.4 13.0 6.8 16.3 11.9 19.2 21.9 23.8 20.6 21.9 15.7 14.4 10.7 14.7 13.6 25.0 23.5 21.2 25.9 15.9 6.8 4.6 8.3 7.6 7.8 8.0
0.0 0.0 0.0 0.0 0.0 0.0 0.0 0.0 0.0 0.0 0.0 0.0 9.0 0.0 0.0 20.2 10.1 0.0 0.0 0.0 0.0 0.0 3.6 5.2 10.5 13.2 17.8 23.9 19.4 13.8 14.9 12.4 12.4 18.6 3.0 18.2 14.6 19.9 20.6 20.7 11.5 8.9 11.7 8.4 6.5 7.8 7.4

GFSGBSN_prec_snow_336.txt.gz
Snowfall_Accumulation
0.0 0.0 0.0 0.0 0.0 0.0 0.0 0.0 0.0 0.0 0.0 0.0 0.0 0.0 0.0 0.0 0.0 0.0 0.0 0.0 0.0 0.0 0.0 0.0 0.0 0.0 0.0 0.0 0.0 0.0 0.0 0.0 0.0 0.0 0.0 0.0 0.0 0.0 0.0 0.0 0.0 0.0 0.0 0.0 0.0 0.0 0.0
0.0 0.0 0.0 0.0 0.0 0.0 0.0 0.0 0.0 0.0 0.0 0.0 0.0 0.0 0.0 0.0 0.0 0.0 0.0 0.0 0.0 0.0 0.0 0.0 0.0 0.0 0.0 0.0 0.0 0.0 0.0 0.0 0.0 0.0 0.0 0.0 0.0 0.0 0.0 0.0 0.0 0.0 0.0 0.0 0.0 0.0 0.0
0.0 0.0 0.0 0.0 0.0 0.0 0.0 0.0 0.0 0.0 0.0 0.0 0.0 0.0 0.0 0.0 0.0 0.0 0.0 0.0 0.0 0.0 0.0 0.0 0.0 0.0 0.0 0.0 0.0 0.0 0.0 0.0 0.0 0.0 0.0 0.0 0.0 0.0 0.0 0.0 0.0 0.0 0.0 0.0 0.0 0.0 0.0
0.0 0.0 0.0 0.0 0.0 0.0 0.0 0.0 0.0 0.0 0.0 0.0 0.0 0.0 0.0 0.0 0.0 0.0 0.0 0.0 0.0 0.0 0.0 0.0 0.0 0.0 0.0 0.0 0.0 0.0 0.0 0.0 0.0 0.0 0.0 0.0 0.0 0.0 0.0 0.0 0.0 0.0 0.0 0.0 0.0 0.0 0.0
0.0 0.0 0.0 0.0 0.0 0.0 0.0 0.0 0.0 0.0 0.0 0.0 0.0 0.0 0.0 0.0 0.0 0.0 0.0 0.0 0.0 0.0 0.0 0.0 0.0 0.0 0.0 0.0 0.0 0.0 0.0 0.0 0.0 0.0 0.0 0.0 0.0 0.0 0.0 0.0 0.0 0.0 0.0 0.0 0.0 0.0 0.0
0.0 0.0 0.0 0.0 0.0 0.0 0.0 0.0 0.0 0.0 0.0 0.0 0.0 0.0 0.0 0.0 0.0 0.0 0.0 0.0 0.0 0.0 0.0 0.0 0.0 0.0 0.0 0.0 0.0 0.0 0.0 0.0 0.0 0.0 0.0 0.0 0.0 0.0 0.0 0.0 0.0 0.0 0.0 0.0 0.0 0.0 0.0
0.0 0.0 0.0 0.0 0.0 0.0 0.0 0.0 0.0 0.0 0.0 0.0 0.0 0.0 0.0 0.0 0.0 0.0 0.0 0.0 0.0 0.0 0.0 0.0 0.0 0.0 0.0 0.0 0.0 0.0 0.0 0.0 0.0 0.0 0.0 0.0 0.0 0.0 0.0 0.0 0.0 0.0 0.0 0.0 0.0 0.0 0.0
0.0 0.0 0.0 0.0 0.0 0.0 0.0 0.0 0.0 0.0 0.0 0.0 0.0 0.0 0.0 0.0 0.0 0.0 0.0 0.0 0.0 0.0 0.6 0.0 0.0 0.0 0.0 0.0 0.0 0.0 0.0 0.0 0.0 0.0 0.0 0.0 0.0 0.0 0.0 0.0 0.0 0.0 0.0 0.0 0.0 0.0 0.0
0.0 0.0 0.0 0.0 0.0 0.0 0.0 0.0 0.0 0.0 0.0 0.0 0.0 0.0 0.0 0.0 0.0 0.0 0.0 0.0 0.0 0.0 2.7 0.0 0.0 0.0 0.0 0.0 0.0 0.0 0.0 0.0 0.0 0.2 0.0 0.0 0.0 0.0 0.0 0.0 0.0 0.0 0.5 0.0 0.2 0.0 0.0
0.0 0.0 0.0 0.0 0.0 0.0 0.0 0.0 0.0 0.0 0.0 0.0 0.0 0.0 0.0 0.0 0.0 0.0 0.0 0.0 0.0 0.0 6.9 0.0 0.2 0.0 0.0 0.0 0.0 0.0 0.0 0.0 0.0 0.0 0.3 0.1 0.0 0.0 0.0 0.0 0.4 0.3 0.0 0.0 0.0 0.2 0.6
0.0 0.0 0.0 0.0 0.0 0.0 0.0 0.0 0.0 0.0 0.0 0.0 0.0 0.0 0.0 0.0 0.0 0.0 0.0 0.0 0.0 0.0 34.8 0.3 0.0 0.0 0.0 0.0 0.0 0.0 0.0 0.0 0.0 0.0 0.4 0.4 0.1 0.2 0.6 0.2 0.5 0.1 0.0 0.0 0.0 0.0 0.6
0.0 0.0 0.0 0.0 0.0 0.0 0.0 0.0 0.0 0.0 0.0 0.0 0.0 0.0 0.0 0.0 0.0 0.0 0.0 0.0 0.0 37.8 45.6 1.3 0.0 0.0 0.0 0.0 0.0 0.0 0.0 0.0 0.0 0.0 0.0 0.1 0.0 0.0 0.5 0.0 0.0 0.0 0.2 0.0 0.1 0.9 3.4
0.0 0.0 0.0 0.0 0.0 0.0 0.0 0.0 0.0 0.0 0.0 0.0 0.0 0.0 0.0 0.0 0.0 0.0 0.0 0.0 59.1 61.9 0.0 2.1 0.0 0.0 0.0 0.0 0.0 0.2 0.9 0.5 0.9 3.4 2.4 0.0 0.4 0.0 0.0 0.4 0.0 0.5 0.6 6.6 5.7 6.1 3.9
0.0 0.0 0.0 0.0 0.0 0.0 0.0 0.0 0.0 0.0 0.0 0.0 0.0 0.0 0.0 0.0 0.0 0.0 0.0 13.4 70.9 12.0 3.6 0.1 0.0 0.0 0.7 0.2 0.0 0.0 0.5 1.6 2.1 0.3 0.7 2.4 3.7 0.8 0.1 2.8 0.4 0.1 0.7 3.4 5.7 2.4 0.5
0.0 0.0 0.0 0.0 0.0 0.0 0.0 0.0 0.0 0.0 0.0 0.0 0.0 0.0 0.0 0.0 0.0 0.0 6.3 86.1 52.3 1.7 0.0 0.0 0.0 1.9 2.3 0.7 0.2 0.0 2.7 5.7 5.1 1.0 5.4 5.3 2.7 0.0 0.5 0.0 0.1 1.2 4.0 0.8 5.6 1.8 4.2
0.0 0.0 0.0 0.0 0.0 0.0 0.0 0.0 0.0 0.0 0.0 0.0 0.0 0.0 0.0 0.0 0.0 0.0 37.2 64.2 24.4 0.0 0.9 0.0 2.3 1.6 3.4 2.3 1.8 2.4 4.3 10.6 4.8 3.5 0.9 3.5 8.5 0.7 0.1 0.0 0.0 1.2 1.1 8.1 12.8 25.8 15.2
0.0 0.0 0.0 0.0 0.0 0.0 0.0 0.0 0.0 0.0 0.0 0.0 0.0 8.8 0.0 0.0 0.0 2.5 63.9 19.3 8.3 0.0 0.0 2.2 2.7 4.6 1.4 2.1 5.1 5.7 8.9 7.8 6.1 2.3 1.7 4.1 9.0 1.8 0.8 2.0 3.2 0.6 3.9 7.3 9.6 15.0 16.8
0.0 0.0 0.0 0.0 0.0 0.0 0.0 0.0 0.0 0.0 0.0 0.0 0.0 41.3 0.0 0.0 33.5 39.9 40.4 15.4 1.8 0.3 0.0 2.7 1.7 2.0 4.0 3.1 3.2 7.7 12.1 9.2 1.4 2.6 5.2 6.1 8.0 10.2 1.5 0.4 0.1 0.5 7.7 11.8 45.8 39.5 28.3
0.0 0.0 0.0 0.0 0.0 0.0 0.0 0.0 0.0 0.0 0.0 0.0 18.8 23.4 0.0 0.0 57.7 40.5 12.5 15.8 5.7 4.2 3.1 5.9 3.7 0.9 1.7 3.0 7.7 5.3 5.8 0.1 3.0 6.6 9.4 9.0 11.5 14.5 6.6 1.6 0.1 6.8 9.6 9.7 14.3 31.1 29.7
0.0 0.0 0.0 0.0 0.0 0.0 0.0 0.0 0.0 0.0 0.0 0.0 23.8 54.8 13.5 0.3 8.5 12.3 14.9 15.5 10.1 0.0 2.9 0.6 8.0 0.2 6.2 8.4 2.9 6.4 4.1 2.8 6.6 6.4 3.4 6.0 8.4 11.3 11.8 7.2 6.6 7.5 3.8 7.1 17.8 28.4 19.1
0.0 0.0 0.0 0.0 0.0 0.0 0.0 0.0 0.0 0.0 0.0 0.0 41.1 44.7 0.6 38.0 23.4 10.8 11.4 10.6 7.9 8.0 4.6 0.5 8.2 4.4 5.6 12.2 7.7 5.7 4.6 6.2 9.1 0.5 3.8 14.5 14.2 5.6 4.7 1.9 1.8 3.8 3.8 2.7 11.2 6.8 12.6
0.0 0.0 0.0 0.0 0.0 0.0 0.0 0.0 0.0 0.0 0.0 3.5 80.3 24.2 5.7 7.2 4.3 14.1 10.1 13.7 6.0 5.5 11.3 8.5 9.2 4.3 3.9 10.0 7.2 8.5 5.9 3.5 9.1 0.5 9.1 13.1 15.3 9.4 13.2 4.1 6.0 8.2 5.0 3.3 5.5 5.9 6.9
0.0 0.0 0.0 0.0 0.0 0.0 0.0 0.0 0.0 0.0 0.0 20.6 7.9 0.0 17.2 6.4 5.1 11.1 13.4 10.9 8.2 10.6 3.4 2.5 5.7 8.5 7.3 6.3 2.2 0.9 0.5 0.2 1.8 6.9 7.6 14.2 21.5 19.5 22.2 9.4 7.7 14.2 8.8 5.4 4.3 2.5 3.0
0.0 0.0 0.0 0.0 0.0 0.0 0.0 0.0 0.0 0.0 0.0 0.0 0.4 3.7 26.0 25.3 10.5 7.4 5.1 2.9 6.5 7.1 16.2 3.8 2.7 8.5 1.7 0.4 0.0 0.0 0.0 2.2 0.1 3.0 3.4 14.6 16.6 25.3 27.3 16.8 26.9 10.0 4.7 2.5 1.2 0.9 0.7
0.0 0.0 0.0 0.0 0.0 0.0 0.0 0.0 0.0 0.0 0.0 0.0 0.0 3.8 21.8 27.3 5.3 6.4 5.2 5.2 3.3 3.8 7.4 8.6 4.5 0.4 0.0 1.1 12.1 21.0 19.2 18.6 13.6 7.7 8.7 6.6 11.9 27.5 31.0 22.9 16.1 3.8 1.7 1.9 7.1 5.1 0.6
0.0 0.0 0.0 0.0 0.0 0.0 0.0 0.0 0.0 0.0 0.0 0.0 0.0 0.0 9.9 35.7 10.4 0.9 5.5 2.2 4.7 9.0 9.1 6.1 2.9 0.0 0.0 9.3 24.3 29.9 19.4 13.6 11.6 6.9 4.7 6.6 10.7 24.0 29.1 25.0 18.0 7.0 3.1 0.4 0.5 13.4 0.7
0.0 0.0 0.0 0.0 0.0 0.0 0.0 0.0 0.0 0.0 0.0 0.0 0.0 0.0 7.3 43.2 2.2 1.1 7.0 9.3 2.1 4.7 11.6 2.9 2.4 5.3 0.4 21.7 34.7 27.0 16.6 6.2 11.1 10.7 13.1 16.3 24.6 32.3 23.6 21.9 9.6 8.9 4.8 0.1 13.0 13.5 5.8
0.0 0.0 0.0 0.0 0.0 0.0 0.0 0.0 0.0 0.0 0.0 0.0 0.0 0.0 7.1 44.3 4.7 0.0 0.5 1.0 3.4 3.4 13.2 6.8 16.3 11.9 19.2 22.1 24.1 20.8 22.2 16.4 15.1 11.4 15.2 14.0 25.3 24.0 21.4 25.9 16.6 7.7 4.6 9.1 8.6 8.3 8.6
0.0 0.0 0.0 0.0 0.0 0.0 0.0 0.0 0.0 0.0 0.0 0.0 9.0 0.0 0.0 20.2 10.1 0.0 0.0 0.0 0.0 0.0 3.6 5.2 10.5 13.3 17.8 23.9 19.7 14.1 15.3 12.8 12.4 19.2 3.4 19.4 15.3 20.3 21.3 22.4 13.3 10.4 13.5 10.0 7.6 8.6 8.0